Weather History for El Centro, CA

Change the Weather History Date:

Friday, March 22, 2013

  Actual Average Record
Temperature  
Mean Temperature 73 °F -  
Max Temperature 88 °F 79 °F 93 °F (2004)
Min Temperature 60 °F 55 °F 32 °F (2012)
Cooling Degree Days 8    
Growing Degree Days 23 (Base 50)    
Moisture  
Dew Point 33 °F    
Average Humidity 27    
Maximum Humidity 43    
Minimum Humidity 7    
Precipitation  
Precipitation 0.00 in - - ()
Sea Level Pressure  
Sea Level Pressure 29.76 in    
Wind  
Wind Speed 12 mph (West)    
Max Wind Speed 18 mph    
Max Gust Speed 20 mph    
Visibility 10 miles    
Events      
Averages and records for this station are not official NWS values.
T = Trace of Precipitation, MM = Missing Value Source: NWS Daily Summary

Daily Weather History Graph

Daily Weather History Graph

Search for Another Location

Airport:

Trip Planner

Search our weather history database for the weather conditions in past years. The results will help you decide how hot, cold, wet, or windy it might be!

Date:

Astronomy

Mar. 22, 2013 Rise Set
Actual Time 6:43 AM PDT 6:55 PM PDT
Civil Twilight 6:18 AM PDT 7:20 PM PDT
Nautical Twilight 5:49 AM PDT 7:49 PM PDT
Astronomical Twilight 5:20 AM PDT 8:18 PM PDT
Moon 2:39 PM PDT (3/22) 3:32 AM PDT (3/22)
Length of Visible Light 13h 01m
Length of Day
12h 12m
Waxing Gibbous, 78% of the Moon is Illuminated
Mar 22
Waxing Gibbous
Mar 27
Full
Apr 2
Last Quarter
Apr 10
New
Apr 18
First Quarter

Hourly Weather History & Observations

Time (PDT) Temp. Dew Point Humidity Pressure Visibility Wind Dir Wind Speed Gust Speed Precip Events Conditions
12:56 AM 68.0 °F 39.9 °F 36% 29.71 in 10.0 mi WSW 17.3 mph - N/A   Clear
1:56 AM 66.9 °F 39.9 °F 37% 29.71 in 10.0 mi WSW 18.4 mph - N/A   Clear
2:56 AM 66.0 °F 39.0 °F 37% 29.70 in 10.0 mi SW 15.0 mph - N/A   Clear
3:56 AM 64.0 °F 39.0 °F 40% 29.70 in 10.0 mi SW 10.4 mph - N/A   Clear
4:56 AM 63.0 °F 39.9 °F 43% 29.70 in 10.0 mi WSW 11.5 mph - N/A   Clear
5:56 AM 60.1 °F 37.0 °F 42% 29.72 in 10.0 mi West 11.5 mph - N/A   Clear
6:56 AM 61.0 °F 37.9 °F 42% 29.75 in 10.0 mi NW 10.4 mph - N/A   Clear
7:56 AM 64.0 °F 39.0 °F 40% 29.77 in 10.0 mi WSW 6.9 mph - N/A   Clear
8:56 AM 71.1 °F 37.0 °F 29% 29.79 in 10.0 mi West 10.4 mph - N/A   Clear
9:56 AM 75.9 °F 33.1 °F 21% 29.80 in 10.0 mi WNW 12.7 mph - N/A   Clear
10:56 AM 79.0 °F 27.0 °F 15% 29.81 in 10.0 mi NNW 12.7 mph - N/A   Clear
11:56 AM 82.0 °F 25.0 °F 12% 29.80 in 10.0 mi North 13.8 mph 19.6 mph N/A   Clear
12:56 PM 84.0 °F 21.9 °F 10% 29.79 in 10.0 mi NNE 8.1 mph - N/A   Clear
1:56 PM 84.0 °F 19.0 °F 9% 29.78 in 10.0 mi NW 6.9 mph - N/A   Clear
2:56 PM 86.0 °F 18.0 °F 8% 29.76 in 10.0 mi North 10.4 mph - N/A   Clear
3:56 PM 86.0 °F 16.0 °F 7% 29.74 in 10.0 mi NW 9.2 mph - N/A   Clear
4:56 PM 86.0 °F 16.0 °F 7% 29.73 in 10.0 mi Calm Calm - N/A   Clear
5:56 PM 84.0 °F 19.0 °F 9% 29.73 in 10.0 mi SSW 6.9 mph - N/A   Clear
6:56 PM 79.0 °F 27.0 °F 15% 29.73 in 10.0 mi South 5.8 mph - N/A   Clear
7:56 PM 73.9 °F 43.0 °F 33% 29.75 in 10.0 mi SW 11.5 mph - N/A   Clear
8:56 PM 75.0 °F 39.9 °F 28% 29.78 in 10.0 mi WSW 12.7 mph - N/A   Clear
9:56 PM 70.0 °F 45.0 °F 41% 29.80 in 10.0 mi WSW 12.7 mph - N/A   Clear
10:56 PM 70.0 °F 44.1 °F 39% 29.81 in 10.0 mi WSW 12.7 mph - N/A   Clear
11:56 PM 68.0 °F 42.1 °F 39% 29.82 in 10.0 mi WSW 11.5 mph - N/A   Clear